User: anonymous   Login
Location: Deer Lake
(49.1830°N, 57.4330°W)
Time: 10:37:25
(UTC-02:-30)
Language:

Cosmos 1707 - Orbit

View from above orbital plane
View from above orbital plane
View from above satellite
View from above satellite

Ground track
Ground track

The orbit data is extracted from the following two-line orbital elements,

1 16326U 85113A   16204.48412695  .00000585  00000-0  31621-4 0  9993
2 16326  82.5118 172.0872 0011185   9.7953 350.3494 15.12725784667493
Epoch (UTC): 22 July 2016 11:37:08
Eccentricity: 0.0011185
inclination: 82.5118°
perigee height: 520 km
apogee height: 535 km
right ascension of ascending node: 172.0872°
argument of perigee: 9.7953°
revolutions per day: 15.12725784
mean anomaly at epoch: 350.3494°
orbit number at epoch: 66749

The dashed part of the orbit path shows where the satellite is in the earth's shadow,  

DLR